THORAD DELTA 1 DEB, 42595

Orbit data source: Space-Track

THORAD DELTA 1 DEB, 42595 is space debris in SSO originally from a launch on Fri, 15 Nov 1974 UTC launched from the Air Force Western Test Range (AFWTR). Debris objects in space refer to the collection of defunct objects orbiting the Earth. Examples of debris include non-operational satellites, rocket bodies, and fragments generated from explosions, collisions, or faulty payload assembly.

Loading next visibility...
Identifier
42595, 1974-089FL
Orbit
SSO
Country
Flag of USUS
Related business
Manufacturer
Unknown
Mission
Spacecraft
Bus & Motor
Unknown
Mass
Unknown
Launch date (UTC)
1974-11-15 (51 years ago)
Launch vehicle
Unknown
Launch site
Air Force Western Test Range (AFWTR)
Object type
Payload
Rocket body
Debris
Shape & HBR
Unknown shape, 0.1 m
Radar Cross Section
Small (<0.1 m²)

Expand to show TLE details & history
Last TLE update: 21 hours ago

TLE from 21 hours ago
0 THORAD DELTA 1 DEB
1 42595U 74089FL  25288.67871187  .00000102  00000-0  99643-3 0  9990
2 42595 101.6303 262.3006 0041178  53.5663 306.9191 12.46687014541490
Epoch: 2025-10-15T16:17Z
TLE epoch observation values (Epoch: 2025-10-15T16:17:20.705Z)
Latitude
-0.00009°
Longitude
-6.48499°
Altitude
1,461.605 km
Speed
7.141 km/s
True Right ascension
17h 29m 12s
True Declination
0° 00' 00"
Sunlit
Object was in daylight at epoch
Visualization orbit readout
Latitude
Unknown
Longitude
Unknown
Altitude
Unknown
Speed
Unknown
Apparent Right ascension
Unknown
Apparent Declination
Unknown
Sunlit
N/A
Visualization observer readout
Local Sidereal Time
07:57:56
Azimuth
Unknown
Elevation
Unknown
Doppler factor
Unknown
Orbital elements
Apogee altitude
1,508.269 km
Perigee altitude
1,443.586 km
Semi-major axis
7,854.064 km
Eccentricity
0.00412
Inclination
101.6303°
RAAN
262.3006°
Arg. of periapsis
53.5663°
True anomaly
306.54068°
Mean anomaly
306.9191°
Eccentric anomaly
306.73001°
Mean motion
3.11818 °/min
Orbital period
115.45 mins
BSTAR
0.00099643
Loading maneuver chart data...
Computing Atmospheric mass density...

Documentation

Showing up to 5 results
|